Stündliche Wetter Kyursola

Heute, 10 Mai, Montag

Zeit Temperatur Niederschläge Wind Luftdruck Luftfeuchtigkeit
00:00 +13°C° 0.4 mm 3 m/S 745 mmHg 90%
01:00 +14°C° 0.1 mm 2 m/S 746 mmHg 90%
02:00 +13°C° 0.1 mm 2 m/S 746 mmHg 90%
03:00 +13°C° 0 mm 1 m/S 747 mmHg 90%
04:00 +13°C° 0.1 mm 1 m/S 747 mmHg 90%
05:00 +14°C° 0.1 mm 1 m/S 748 mmHg 89%
06:00 +14°C° 0.1 mm 1 m/S 748 mmHg 88%
07:00 +15°C° 0 mm 2 m/S 749 mmHg 84%
08:00 +16°C° 0 mm 2 m/S 749 mmHg 81%
09:00 +17°C° 0 mm 2 m/S 749 mmHg 76%
10:00 +18°C° 0 mm 2 m/S 750 mmHg 71%
11:00 +20°C° 0 mm 1 m/S 750 mmHg 67%
12:00 +22°C° 0 mm 1 m/S 751 mmHg 62%
13:00 +22°C° 0.6 mm 1 m/S 751 mmHg 61%
14:00 +21°C° 0.6 mm 2 m/S 751 mmHg 60%
15:00 +21°C° 0.6 mm 2 m/S 751 mmHg 59%
16:00 +20°C° 0.3 mm 3 m/S 752 mmHg 67%
17:00 +18°C° 0.3 mm 4 m/S 752 mmHg 75%
18:00 +17°C° 0.3 mm 4 m/S 753 mmHg 84%
19:00 +15°C° 0.4 mm 4 m/S 753 mmHg 87%
20:00 +14°C° 0.4 mm 4 m/S 753 mmHg 90%
21:00 +12°C° 0.4 mm 4 m/S 754 mmHg 93%
22:00 +12°C° 0.1 mm 4 m/S 754 mmHg 94%
23:00 +11°C° 0.1 mm 3 m/S 754 mmHg 95%

Morgen, 11 Mai, Dienstag

Zeit Temperatur Niederschläge Wind Luftdruck Luftfeuchtigkeit
00:00 +11°C° 0.1 mm 3 m/S 754 mmHg 96%
01:00 +10°C° 0 mm 4 m/S 755 mmHg 96%
02:00 +10°C° 0 mm 4 m/S 755 mmHg 96%
03:00 +8°C° 0 mm 4 m/S 755 mmHg 97%
04:00 +10°C° 0 mm 4 m/S 755 mmHg 95%
05:00 +10°C° 0 mm 4 m/S 755 mmHg 93%
06:00 +11°C° 0 mm 4 m/S 756 mmHg 91%
07:00 +13°C° 0 mm 4 m/S 756 mmHg 86%
08:00 +15°C° 0 mm 4 m/S 756 mmHg 80%
09:00 +17°C° 0 mm 4 m/S 756 mmHg 74%
10:00 +19°C° 0 mm 3 m/S 756 mmHg 69%
11:00 +20°C° 0 mm 3 m/S 756 mmHg 64%
12:00 +22°C° 0 mm 3 m/S 756 mmHg 59%
13:00 +22°C° 0 mm 3 m/S 756 mmHg 57%
14:00 +24°C° 0 mm 3 m/S 756 mmHg 55%
15:00 +24°C° 0 mm 2 m/S 756 mmHg 53%
16:00 +23°C° 0 mm 2 m/S 756 mmHg 58%
17:00 +23°C° 0 mm 2 m/S 757 mmHg 64%
18:00 +21°C° 0 mm 2 m/S 757 mmHg 69%
19:00 +19°C° 0 mm 3 m/S 757 mmHg 74%
20:00 +18°C° 0 mm 3 m/S 757 mmHg 79%
21:00 +16°C° 0 mm 3 m/S 757 mmHg 84%
22:00 +16°C° 0 mm 3 m/S 757 mmHg 85%
23:00 +14°C° 0 mm 3 m/S 757 mmHg 86%

übermorgen, 12 Mai, Mittwoch

Zeit Temperatur Niederschläge Wind Luftdruck Luftfeuchtigkeit
00:00 +14°C° 0 mm 3 m/S 757 mmHg 88%
01:00 +14°C° 0 mm 3 m/S 757 mmHg 88%
02:00 +13°C° 0 mm 3 m/S 757 mmHg 89%
03:00 +13°C° 0 mm 3 m/S 757 mmHg 89%
04:00 +14°C° 0 mm 3 m/S 757 mmHg 87%
05:00 +14°C° 0 mm 3 m/S 757 mmHg 84%
06:00 +16°C° 0 mm 3 m/S 757 mmHg 81%
07:00 +18°C° 0 mm 3 m/S 757 mmHg 73%
08:00 +20°C° 0 mm 3 m/S 757 mmHg 65%
09:00 +22°C° 0 mm 4 m/S 757 mmHg 58%
10:00 +23°C° 0 mm 4 m/S 757 mmHg 51%
11:00 +25°C° 0 mm 4 m/S 757 mmHg 45%
12:00 +26°C° 0 mm 4 m/S 757 mmHg 39%
13:00 +26°C° 0 mm 4 m/S 757 mmHg 39%
14:00 +26°C° 0 mm 4 m/S 757 mmHg 38%
15:00 +26°C° 0 mm 4 m/S 757 mmHg 37%
16:00 +25°C° 0 mm 3 m/S 756 mmHg 42%
17:00 +24°C° 0 mm 3 m/S 756 mmHg 47%
18:00 +23°C° 0 mm 2 m/S 756 mmHg 52%
19:00 +20°C° 0 mm 2 m/S 756 mmHg 54%
20:00 +18°C° 0 mm 2 m/S 756 mmHg 56%
21:00 +17°C° 0 mm 2 m/S 756 mmHg 58%
22:00 +16°C° 0 mm 2 m/S 756 mmHg 59%
23:00 +16°C° 0 mm 2 m/S 756 mmHg 60%

13 Mai, Donnerstag

Zeit Temperatur Niederschläge Wind Luftdruck Luftfeuchtigkeit
00:00 +15°C° 0 mm 2 m/S 756 mmHg 61%
01:00 +15°C° 0 mm 2 m/S 756 mmHg 63%
02:00 +15°C° 0 mm 2 m/S 756 mmHg 65%
03:00 +14°C° 0 mm 2 m/S 756 mmHg 67%
04:00 +15°C° 0 mm 2 m/S 756 mmHg 67%
05:00 +16°C° 0 mm 2 m/S 756 mmHg 67%
06:00 +17°C° 0 mm 2 m/S 756 mmHg 68%
07:00 +18°C° 0 mm 3 m/S 756 mmHg 60%
08:00 +20°C° 0 mm 3 m/S 756 mmHg 53%
09:00 +22°C° 0 mm 4 m/S 756 mmHg 46%
10:00 +23°C° 0 mm 4 m/S 756 mmHg 42%
11:00 +23°C° 0 mm 5 m/S 755 mmHg 39%
12:00 +25°C° 0 mm 5 m/S 755 mmHg 36%
13:00 +25°C° 0 mm 5 m/S 755 mmHg 37%
14:00 +25°C° 0 mm 4 m/S 755 mmHg 39%
15:00 +25°C° 0 mm 4 m/S 755 mmHg 40%
16:00 +23°C° 0 mm 4 m/S 754 mmHg 47%
17:00 +22°C° 0 mm 3 m/S 754 mmHg 53%
18:00 +21°C° 0 mm 3 m/S 754 mmHg 60%
19:00 +20°C° 0 mm 3 m/S 754 mmHg 64%
20:00 +19°C° 0 mm 2 m/S 754 mmHg 67%
21:00 +18°C° 0 mm 2 m/S 754 mmHg 71%
22:00 +18°C° 0 mm 2 m/S 754 mmHg 71%
23:00 +17°C° 0 mm 2 m/S 753 mmHg 70%

14 Mai, Freitag

Zeit Temperatur Niederschläge Wind Luftdruck Luftfeuchtigkeit
00:00 +17°C° 0 mm 3 m/S 753 mmHg 70%
01:00 +17°C° 0 mm 3 m/S 753 mmHg 71%
02:00 +17°C° 0 mm 3 m/S 753 mmHg 72%
03:00 +17°C° 0 mm 3 m/S 753 mmHg 73%
04:00 +17°C° 0 mm 3 m/S 753 mmHg 73%
05:00 +18°C° 0 mm 3 m/S 753 mmHg 73%
06:00 +18°C° 0 mm 3 m/S 753 mmHg 73%
07:00 +20°C° 0 mm 3 m/S 753 mmHg 64%
08:00 +21°C° 0 mm 4 m/S 753 mmHg 55%
09:00 +23°C° 0 mm 4 m/S 753 mmHg 46%
10:00 +25°C° 0 mm 4 m/S 753 mmHg 43%
11:00 +26°C° 0 mm 5 m/S 753 mmHg 39%
12:00 +27°C° 0 mm 5 m/S 752 mmHg 36%
13:00 +27°C° 0 mm 5 m/S 752 mmHg 38%
14:00 +27°C° 0 mm 5 m/S 752 mmHg 40%
15:00 +27°C° 0 mm 5 m/S 752 mmHg 42%
16:00 +26°C° 0 mm 4 m/S 752 mmHg 46%
17:00 +25°C° 0 mm 4 m/S 751 mmHg 50%
18:00 +22°C° 0 mm 3 m/S 751 mmHg 55%
19:00 +21°C° 0 mm 3 m/S 751 mmHg 59%
20:00 +19°C° 0 mm 3 m/S 751 mmHg 62%
21:00 +18°C° 0 mm 3 m/S 751 mmHg 66%
22:00 +17°C° 0 mm 3 m/S 750 mmHg 68%
23:00 +17°C° 0 mm 3 m/S 750 mmHg 69%

15 Mai, Samstag

Zeit Temperatur Niederschläge Wind Luftdruck Luftfeuchtigkeit
00:00 +16°C° 0 mm 3 m/S 750 mmHg 70%
01:00 +16°C° 0 mm 3 m/S 750 mmHg 71%
02:00 +16°C° 0 mm 3 m/S 750 mmHg 73%
03:00 +15°C° 0 mm 2 m/S 750 mmHg 75%
04:00 +16°C° 0 mm 2 m/S 750 mmHg 73%
05:00 +17°C° 0 mm 2 m/S 750 mmHg 72%
06:00 +18°C° 0 mm 2 m/S 750 mmHg 70%
07:00 +20°C° 0 mm 3 m/S 750 mmHg 63%
08:00 +22°C° 0 mm 4 m/S 750 mmHg 55%
09:00 +25°C° 0 mm 4 m/S 750 mmHg 47%
10:00 +26°C° 0 mm 5 m/S 750 mmHg 44%
11:00 +27°C° 0 mm 5 m/S 750 mmHg 41%
12:00 +28°C° 0 mm 6 m/S 749 mmHg 38%
13:00 +28°C° 0 mm 6 m/S 749 mmHg 38%
14:00 +28°C° 0 mm 5 m/S 749 mmHg 39%
15:00 +29°C° 0 mm 5 m/S 749 mmHg 40%
16:00 +27°C° 0 mm 5 m/S 749 mmHg 44%
17:00 +26°C° 0 mm 4 m/S 749 mmHg 48%
18:00 +25°C° 0 mm 4 m/S 749 mmHg 52%
19:00 +22°C° 0 mm 4 m/S 748 mmHg 55%
20:00 +21°C° 0 mm 4 m/S 748 mmHg 58%
21:00 +19°C° 0 mm 4 m/S 748 mmHg 61%
22:00 +18°C° 0 mm 3 m/S 748 mmHg 62%
23:00 +18°C° 0 mm 3 m/S 748 mmHg 63%
Mehr zeigen

Wir brauchen deine Erlaubnis

Meteoprog und unser Service Anbieter werden persönliche Daten aufbewahren, so wie Cookies, Geräte Bezeichnung oder ähnliche Technologien von deinem Gerät und Prozess, so wie Persönliche Daten Inhalte und Werbungen, genauso wie social Media und den Verkehr zu analysieren.

  • Aufbewahrung und/oder Zugang zu deiner Geräte Informationen.

    Cookies, Geräte Bezeichnung oder andere Informationen, können aufbewahrt oder Zugang zu deinem Gerät erhalten, für den Grund, der oben angegeben wird.

  • Personalisierte Werbung und Inhalte, Messungen, Einblick in das Publikum und Produkt Entwicklung.

    Werbungen und Inhalte können personalisiert werden, basierend auf ein Profil. Mehr Daten können besser personalisierte Werbungen und Inhalte hinzufügen. Werbung und Inhalte können gezeigt und gemessen werden. Einblicke über das Publikum, welche die Werbung gesehen haben und den Inhalt, können abgeleitet werden. So wie Daten können genutzt werden, um es zu verbessern oder die Benutzer Erfahrung zu verbessern das System und die Software.

Wenn du “Ich stimme zu” klickst, erlaubst du uns, die Cookies zu benutzen die Geräte Bezeichnung, den Web oder ähnliche Technologien zu benutzen. Deine Settings, können in deinem Gerät bei deinem Browser geändert werden.

Für den bestimmten Zweck, berechtigten Interessen beruhen darauf, mehr als auf den Inhalt. Du kannst mehr darüber in unseren Privaten und Cookie Politik lesen.